Погода в Бангалоре

Индия     12°58′44″N   77°35′28″E
темп.,
°C
ветер,
м/с
пор.,
м/с
влажн.,
%
обл.,
%
осадки,
мм/ч
давл.,
гПа
погр.,
м
14 апреля, ср
ср1423:30+25вюв47595 0.0 1013432
02:30+24ююв3566100 0.2 1011227
05:30+23ююв247349 0.2 1012178
08:30+26ю22595 0.1 1014673
11:30+32вюв333494 0.1 10122463
14:30+33вюв2229100 0.1 10082608
17:30+26всв255297 1.7 1010418
20:30+26вюв6757100 1.1 1011474
15 апреля, чт
чт1523:30+24вюв6868100 4.2 1013367
02:30+22ю4579100 2.1 1012531
05:30+21ююз1283100 3.1 1012205
08:30+23юв4573100 0.8 1015490
11:30+28всв114798 0.8 10131078
14:30+31св333543 0.0 10082314
17:30+30юв233672 0.1 10081622
20:30+25юз4460100 0.3 1012599
16 апреля, пт
пт1623:30+23ссз1170100 2.0 1013233
02:30+22юз347253 0.0 1010296
05:30+21з35795 0.0 1012245
08:30+25з23585 0.0 1014501
11:30+31с24375 0.0 10121831
14:30+33св232888 0.0 10082693
17:30+31св4532100 0.0 10081043
20:30+30юв343695 0.3 1010436
17 апреля, сб
сб1723:30+27ююз45525 0.3 1011397
02:30+24юз23612 0.0 1010212
05:30+23юз23665 0.0 1012152
08:30+26з22555 0.0 1014554
11:30+32зюз12350 0.0 10122203
14:30+34всв222463 0.0 10083131
17:30+31ссв553098 0.0 10091028
20:30+31ююз223299 0.0 1011409
18 апреля, вс
вс1823:30+28ююз5648100 0.0 1013502
02:30+26юз46606 0.0 1011519
05:30+24зюз35715 0.0 1013277
08:30+26з3460100 0.0 1015530
11:30+32з433710 0.0 10131933
14:30+34сз222797 0.0 10082846
17:30+30вюв6735100 0.1 1009461
20:30+30в223255 0.0 1010142